| time (UTC) | temp F | wind direction | speed knots | gust knots | rain 1hr in | rain 24hr in | rain mn in | humidity % | barometer mb |
| 20260506033535 | 51 | 5 | 6.1 | 13.0 | 0.00 | 0.00 | 0.00 | 82 | 1009.1 |
| 20260506033024 | 51 | 345 | 5.2 | 11.3 | 0.00 | 0.00 | 0.00 | 82 | 1009.2 |
| 20260506032533 | 51 | 5 | 5.2 | 11.3 | 0.00 | 0.00 | 0.00 | 82 | 1009.3 |
| 20260506032021 | 51 | 346 | 5.2 | 9.6 | 0.00 | 0.00 | 0.00 | 82 | 1009.3 |
| 20260506031526 | 51 | 323 | 4.3 | 9.6 | 0.00 | 0.00 | 0.00 | 82 | 1009.3 |
| 20260506031036 | 51 | 50 | 3.5 | 9.6 | 0.00 | 0.00 | 0.00 | 82 | 1009.4 |
| 20260506030544 | 51 | 64 | 4.3 | 10.4 | 0.00 | 0.00 | 0.00 | 81 | 1009.4 |
| 20260506030026 | 51 | 41 | 3.5 | 10.4 | 0.00 | 0.00 | 0.00 | 81 | 1009.5 |
| 20260506025530 | 51 | 35 | 4.3 | 9.6 | 0.00 | 0.00 | 0.00 | 80 | 1009.5 |
| 20260506025039 | 51 | 347 | 3.5 | 8.7 | 0.00 | 0.00 | 0.00 | 79 | 1009.5 |
| 20260506024548 | 51 | 17 | 3.5 | 9.6 | 0.00 | 0.00 | 0.00 | 78 | 1009.5 |
| 20260506024034 | 51 | 360 | 4.3 | 9.6 | 0.00 | 0.00 | 0.00 | 78 | 1009.5 |
| 20260506023523 | 51 | 53 | 4.3 | 12.2 | 0.00 | 0.00 | 0.00 | 78 | 1009.6 |
| 20260506023028 | 51 | 325 | 3.5 | 11.3 | 0.00 | 0.00 | 0.00 | 78 | 1009.5 |
| 20260506022536 | 50 | 336 | 5.2 | 11.3 | 0.00 | 0.00 | 0.00 | 79 | 1009.6 |
| 20260506022024 | 50 | 16 | 2.6 | 7.8 | 0.00 | 0.00 | 0.00 | 80 | 1009.7 |
| 20260506021534 | 50 | 346 | 3.5 | 7.8 | 0.00 | 0.00 | 0.00 | 81 | 1009.7 |
| 20260506021022 | 50 | 343 | 3.5 | 10.4 | 0.00 | 0.00 | 0.00 | 81 | 1009.7 |
| 20260506020527 | 50 | 5 | 4.3 | 10.4 | 0.00 | 0.00 | 0.00 | 82 | 1009.7 |
| 20260506020050 | 50 | 5 | 2.6 | 7.0 | 0.00 | 0.00 | 0.00 | 82 | 1009.8 |
| 20260506015538 | 49 | 54 | 2.6 | 7.8 | 0.00 | 0.00 | 0.00 | 82 | 1009.8 |
| 20260506015027 | 50 | 10 | 3.5 | 7.8 | 0.00 | 0.00 | 0.00 | 81 | 1009.8 |
| 20260506014531 | 49 | 19 | 3.5 | 7.8 | 0.00 | 0.00 | 0.00 | 81 | 1009.8 |
| 20260506014039 | 50 | 340 | 3.5 | 7.8 | 0.00 | 0.00 | 0.00 | 82 | 1009.8 |
| 20260506013528 | 50 | 9 | 2.6 | 7.8 | 0.00 | 0.00 | 0.00 | 81 | 1009.8 |
| 20260506013036 | 50 | 13 | 2.6 | 10.4 | 0.00 | 0.00 | 0.00 | 81 | 1009.8 |
| 20260506012525 | 50 | 9 | 3.5 | 10.4 | 0.00 | 0.00 | 0.00 | 80 | 1009.8 |
| 20260506012048 | 50 | 327 | 2.6 | 10.4 | 0.00 | 0.00 | 0.00 | 80 | 1009.8 |
| 20260506011536 | 50 | 348 | 3.5 | 9.6 | 0.00 | 0.00 | 0.00 | 80 | 1009.7 |
| 20260506011024 | 50 | 351 | 4.3 | 9.6 | 0.00 | 0.00 | 0.00 | 80 | 1009.7 |
| 20260506010533 | 50 | 5 | 2.6 | 9.6 | 0.00 | 0.00 | 0.00 | 79 | 1009.7 |
| 20260506010036 | 50 | 38 | 4.3 | 9.6 | 0.00 | 0.00 | 0.00 | 79 | 1009.8 |
| 20260506005521 | 50 | 338 | 2.6 | 7.0 | 0.00 | 0.00 | 0.00 | 79 | 1009.9 |
| 20260506005049 | 50 | 9 | 3.5 | 10.4 | 0.00 | 0.00 | 0.00 | 80 | 1009.9 |
| 20260506004537 | 50 | 26 | 5.2 | 10.4 | 0.00 | 0.00 | 0.00 | 80 | 1009.9 |
| 20260506004025 | 50 | 355 | 2.6 | 8.7 | 0.00 | 0.00 | 0.00 | 80 | 1010.0 |
| 20260506003550 | 50 | 22 | 3.5 | 8.7 | 0.00 | 0.00 | 0.00 | 79 | 1010.0 |
| 20260506003100 | 50 | 13 | 4.3 | 8.7 | 0.00 | 0.00 | 0.00 | 79 | 1010.1 |
| 20260506002529 | 50 | 9 | 3.5 | 11.3 | 0.00 | 0.00 | 0.00 | 79 | 1010.1 |
| 20260506002101 | 50 | 10 | 5.2 | 11.3 | 0.00 | 0.00 | 0.00 | 79 | 1010.2 |
| 20260506001524 | 50 | 31 | 4.3 | 8.7 | 0.00 | 0.00 | 0.00 | 80 | 1010.2 |
| 20260506001057 | 50 | 5 | 2.6 | 8.7 | 0.00 | 0.00 | 0.00 | 80 | 1010.3 |
| 20260506000526 | 50 | 17 | 3.5 | 9.6 | 0.00 | 0.00 | 0.00 | 80 | 1010.3 |
| 20260506000029 | 50 | 11 | 4.3 | 10.4 | 0.00 | 0.00 | 0.00 | 80 | 1010.4 |
| 20260505235538 | 50 | 339 | 3.5 | 11.3 | 0.00 | 0.00 | 0.00 | 79 | 1010.4 |
| 20260505235042 | 50 | 19 | 3.5 | 11.3 | 0.00 | 0.00 | 0.00 | 79 | 1010.4 |
| 20260505234530 | 49 | 360 | 2.6 | 9.6 | 0.00 | 0.00 | 0.00 | 79 | 1010.4 |
| 20260505234039 | 49 | 331 | 4.3 | 9.6 | 0.00 | 0.00 | 0.00 | 79 | 1010.5 |
| 20260505233529 | 49 | 348 | 2.6 | 8.7 | 0.00 | 0.00 | 0.00 | 79 | 1010.5 |
| 20260505233033 | 49 | 355 | 3.5 | 8.7 | 0.00 | 0.00 | 0.00 | 79 | 1010.5 |
| 20260505232522 | 49 | 345 | 4.3 | 10.4 | 0.00 | 0.00 | 0.00 | 78 | 1010.6 |
| 20260505232031 | 49 | 338 | 3.5 | 10.4 | 0.00 | 0.00 | 0.00 | 78 | 1010.6 |
| 20260505231520 | 49 | 344 | 2.6 | 7.8 | 0.00 | 0.00 | 0.00 | 78 | 1010.6 |
| 20260505231028 | 50 | 340 | 4.3 | 9.6 | 0.00 | 0.00 | 0.00 | 78 | 1010.7 |
| 20260505230533 | 50 | 44 | 2.6 | 9.6 | 0.00 | 0.00 | 0.00 | 78 | 1010.6 |
| 20260505230059 | 50 | 339 | 4.3 | 9.6 | 0.00 | 0.00 | 0.00 | 78 | 1010.7 |
| 20260505225547 | 50 | 5 | 2.6 | 12.2 | 0.00 | 0.00 | 0.00 | 78 | 1010.7 |
| 20260505225034 | 50 | 355 | 4.3 | 12.2 | 0.00 | 0.00 | 0.00 | 78 | 1010.7 |
| 20260505224523 | 50 | 24 | 2.6 | 9.6 | 0.00 | 0.00 | 0.00 | 77 | 1010.7 |
| 20260505224027 | 50 | 360 | 3.5 | 9.6 | 0.00 | 0.00 | 0.00 | 78 | 1010.7 |
| 20260505223535 | 50 | 11 | 3.5 | 8.7 | 0.00 | 0.00 | 0.00 | 77 | 1010.7 |
| 20260505223025 | 50 | 344 | 3.5 | 12.2 | 0.00 | 0.00 | 0.00 | 77 | 1010.8 |
| 20260505222533 | 50 | 339 | 2.6 | 12.2 | 0.00 | 0.00 | 0.00 | 77 | 1010.8 |
| 20260505222023 | 50 | 350 | 3.5 | 10.4 | 0.00 | 0.00 | 0.00 | 77 | 1010.8 |
| 20260505221528 | 50 | 355 | 1.7 | 10.4 | 0.00 | 0.00 | 0.00 | 77 | 1010.9 |
| 20260505221034 | 50 | 5 | 2.6 | 8.7 | 0.00 | 0.00 | 0.00 | 77 | 1010.9 |
| 20260505220524 | 50 | 5 | 2.6 | 8.7 | 0.00 | 0.00 | 0.00 | 76 | 1010.9 |
| 20260505220024 | 50 | 14 | 3.5 | 10.4 | 0.00 | 0.00 | 0.00 | 76 | 1011.0 |
| 20260505215549 | 50 | 5 | 4.3 | 10.4 | 0.00 | 0.00 | 0.00 | 76 | 1011.0 |
| 20260505215033 | 50 | 55 | 3.5 | 10.4 | 0.00 | 0.00 | 0.00 | 76 | 1011.0 |
| 20260505214521 | 50 | 32 | 5.2 | 10.4 | 0.00 | 0.00 | 0.00 | 76 | 1011.0 |
| 20260505214030 | 50 | 59 | 3.5 | 8.7 | 0.00 | 0.00 | 0.00 | 76 | 1011.1 |
| 20260505213539 | 50 | 55 | 2.6 | 8.7 | 0.00 | 0.00 | 0.00 | 76 | 1011.0 |
| 20260505213023 | 51 | 19 | 3.5 | 11.3 | 0.00 | 0.00 | 0.00 | 76 | 1011.0 |
| 20260505212532 | 51 | 9 | 4.3 | 11.3 | 0.00 | 0.00 | 0.00 | 75 | 1011.1 |
| 20260505212039 | 51 | 36 | 4.3 | 10.4 | 0.00 | 0.00 | 0.00 | 75 | 1011.1 |
| 20260505211528 | 51 | 360 | 4.3 | 10.4 | 0.00 | 0.00 | 0.00 | 75 | 1011.1 |
| 20260505211037 | 51 | 32 | 3.5 | 7.8 | 0.00 | 0.00 | 0.00 | 76 | 1011.1 |
| 20260505210522 | 51 | 360 | 2.6 | 9.6 | 0.00 | 0.00 | 0.00 | 75 | 1011.1 |
| 20260505210046 | 51 | 9 | 4.3 | 9.6 | 0.00 | 0.00 | 0.00 | 75 | 1011.2 |
| 20260505205558 | 51 | 25 | 3.5 | 8.7 | 0.00 | 0.00 | 0.00 | 75 | 1011.2 |
| 20260505205046 | 51 | 360 | 3.5 | 11.3 | 0.00 | 0.00 | 0.00 | 76 | 1011.2 |
| 20260505204551 | 51 | 14 | 2.6 | 11.3 | 0.00 | 0.00 | 0.00 | 76 | 1011.2 |
| 20260505204019 | 51 | 40 | 4.3 | 12.2 | 0.00 | 0.00 | 0.00 | 75 | 1011.2 |
| 20260505203528 | 51 | 311 | 5.2 | 10.4 | 0.00 | 0.00 | 0.00 | 75 | 1011.1 |
| 20260505203037 | 52 | 16 | 2.6 | 8.7 | 0.00 | 0.00 | 0.00 | 75 | 1011.1 |
| 20260505202541 | 52 | 355 | 3.5 | 8.7 | 0.00 | 0.00 | 0.00 | 75 | 1011.1 |
| 20260505202028 | 52 | 53 | 2.6 | 7.8 | 0.00 | 0.00 | 0.00 | 75 | 1011.1 |
| 20260505201537 | 52 | 44 | 4.3 | 7.8 | 0.00 | 0.00 | 0.00 | 76 | 1011.1 |
| 20260505201045 | 52 | 5 | 2.6 | 11.3 | 0.00 | 0.00 | 0.00 | 77 | 1011.0 |
| 20260505200549 | 52 | 338 | 3.5 | 11.3 | 0.00 | 0.00 | 0.00 | 77 | 1011.0 |
| 20260505200029 | 52 | 360 | 6.1 | 11.3 | 0.00 | 0.00 | 0.00 | 77 | 1011.0 |
| 20260505195519 | 52 | 325 | 4.3 | 9.6 | 0.00 | 0.00 | 0.00 | 77 | 1010.9 |
| 20260505195028 | 52 | 9 | 3.5 | 11.3 | 0.00 | 0.00 | 0.00 | 76 | 1010.8 |
| 20260505194533 | 53 | 9 | 3.5 | 11.3 | 0.00 | 0.00 | 0.00 | 77 | 1010.8 |
| 20260505194043 | 53 | 5 | 5.2 | 11.3 | 0.00 | 0.00 | 0.00 | 76 | 1010.8 |
| 20260505193531 | 53 | 338 | 3.5 | 11.3 | 0.00 | 0.00 | 0.00 | 76 | 1010.7 |
| 20260505193019 | 53 | 341 | 3.5 | 13.9 | 0.00 | 0.00 | 0.00 | 76 | 1010.6 |
| 20260505192526 | 53 | 348 | 3.5 | 13.9 | 0.00 | 0.00 | 0.00 | 76 | 1010.6 |
| 20260505192028 | 53 | 348 | 3.5 | 11.3 | 0.00 | 0.00 | 0.00 | 76 | 1010.6 |
| 20260505191556 | 53 | 5 | 5.2 | 10.4 | 0.00 | 0.00 | 0.00 | 76 | 1010.5 |
| 20260505191020 | 53 | 5 | 5.2 | 10.4 | 0.00 | 0.00 | 0.00 | 77 | 1010.5 |
| 20260505190548 | 53 | 337 | 4.3 | 12.2 | 0.00 | 0.00 | 0.00 | 77 | 1010.4 |
| 20260505190023 | 53 | 13 | 7.0 | 13.9 | 0.00 | 0.00 | 0.00 | 77 | 1010.4 |
| 20260505185531 | 54 | 27 | 6.1 | 13.9 | 0.00 | 0.00 | 0.00 | 77 | 1010.3 |
| 20260505185037 | 54 | 9 | 5.2 | 10.4 | 0.00 | 0.00 | 0.00 | 77 | 1010.3 |
| 20260505184524 | 54 | 47 | 4.3 | 14.8 | 0.00 | 0.00 | 0.00 | 76 | 1010.3 |
| 20260505184029 | 54 | 351 | 7.0 | 14.8 | 0.00 | 0.00 | 0.00 | 76 | 1010.2 |
| 20260505183536 | 54 | 360 | 5.2 | 13.9 | 0.00 | 0.00 | 0.00 | 76 | 1010.2 |
| 20260505183044 | 54 | 55 | 5.2 | 12.2 | 0.00 | 0.00 | 0.00 | 76 | 1010.3 |
| 20260505182533 | 54 | 311 | 5.2 | 12.2 | 0.00 | 0.00 | 0.00 | 76 | 1010.1 |
| 20260505182038 | 54 | 45 | 7.0 | 13.0 | 0.00 | 0.00 | 0.00 | 75 | 1010.1 |
| 20260505181520 | 54 | 28 | 8.7 | 13.0 | 0.00 | 0.00 | 0.00 | 75 | 1010.1 |
| 20260505181027 | 55 | 5 | 7.0 | 16.5 | 0.00 | 0.00 | 0.00 | 75 | 1010.2 |
| 20260505180534 | 54 | 17 | 7.0 | 16.5 | 0.00 | 0.00 | 0.00 | 75 | 1010.1 |
| 20260505180059 | 55 | 13 | 8.7 | 16.5 | 0.00 | 0.00 | 0.00 | 74 | 1010.2 |
| 20260505175544 | 55 | 61 | 7.0 | 14.8 | 0.00 | 0.00 | 0.00 | 74 | 1010.2 |
| 20260505175047 | 55 | 5 | 7.8 | 14.8 | 0.00 | 0.00 | 0.00 | 74 | 1010.2 |
| 20260505174535 | 55 | 15 | 9.6 | 14.8 | 0.00 | 0.00 | 0.00 | 73 | 1010.1 |
| 20260505174022 | 55 | 360 | 7.0 | 14.8 | 0.00 | 0.00 | 0.00 | 73 | 1010.2 |
| 20260505173526 | 56 | 348 | 6.1 | 16.5 | 0.00 | 0.00 | 0.00 | 74 | 1010.2 |
| 20260505173056 | 55 | 22 | 8.7 | 17.4 | 0.00 | 0.00 | 0.00 | 74 | 1010.2 |
| 20260505172523 | 55 | 347 | 8.7 | 17.4 | 0.00 | 0.00 | 0.00 | 73 | 1010.2 |
| 20260505172028 | 56 | 15 | 8.7 | 16.5 | 0.00 | 0.00 | 0.00 | 73 | 1010.2 |
| 20260505171535 | 56 | 355 | 7.0 | 13.9 | 0.00 | 0.00 | 0.00 | 73 | 1010.3 |
| 20260505171020 | 56 | 13 | 7.0 | 16.5 | 0.00 | 0.00 | 0.00 | 73 | 1010.3 |
| 20260505170549 | 56 | 11 | 5.2 | 16.5 | 0.00 | 0.00 | 0.00 | 74 | 1010.3 |
| 20260505170027 | 56 | 346 | 7.0 | 14.8 | 0.00 | 0.00 | 0.00 | 74 | 1010.3 |
| 20260505165559 | 56 | 355 | 7.8 | 14.8 | 0.00 | 0.00 | 0.00 | 74 | 1010.4 |
| 20260505165019 | 56 | 22 | 9.6 | 13.9 | 0.00 | 0.00 | 0.00 | 73 | 1010.4 |
| 20260505164548 | 56 | 57 | 6.1 | 13.0 | 0.00 | 0.00 | 0.00 | 73 | 1010.4 |
| 20260505164036 | 57 | 355 | 7.8 | 15.6 | 0.00 | 0.00 | 0.00 | 71 | 1010.4 |
| 20260505163525 | 56 | 360 | 7.8 | 16.5 | 0.00 | 0.00 | 0.00 | 72 | 1010.3 |
| 20260505163030 | 57 | 5 | 7.8 | 16.5 | 0.00 | 0.00 | 0.00 | 72 | 1010.3 |
| 20260505162520 | 56 | 9 | 8.7 | 16.5 | 0.00 | 0.00 | 0.00 | 72 | 1010.3 |
| 20260505162029 | 56 | 355 | 8.7 | 15.6 | 0.00 | 0.00 | 0.00 | 73 | 1010.4 |
| 20260505161519 | 55 | 18 | 10.4 | 17.4 | 0.00 | 0.00 | 0.00 | 73 | 1010.4 |
| 20260505161029 | 56 | 338 | 10.4 | 17.4 | 0.00 | 0.00 | 0.00 | 72 | 1010.4 |
| 20260505160557 | 56 | 5 | 7.8 | 18.2 | 0.00 | 0.00 | 0.00 | 72 | 1010.4 |
| 20260505153024 | 56 | 349 | 8.7 | 17.4 | 0.00 | 0.00 | 0.00 | 73 | 1010.3 |
| 20260505152532 | 56 | 337 | 9.6 | 17.4 | 0.00 | 0.00 | 0.00 | 70 | 1010.4 |
| 20260505152020 | 57 | 9 | 7.8 | 14.8 | 0.00 | 0.00 | 0.00 | 70 | 1010.4 |
| 20260505151524 | 58 | 16 | 7.8 | 13.0 | 0.00 | 0.00 | 0.00 | 70 | 1010.5 |
| 20260505151051 | 58 | 347 | 5.2 | 13.0 | 0.00 | 0.00 | 0.00 | 71 | 1010.5 |
| 20260505150518 | 58 | 360 | 7.0 | 20.0 | 0.00 | 0.00 | 0.00 | 70 | 1010.5 |
| 20260505140527 | 58 | 355 | 6.1 | 15.6 | 0.00 | 0.00 | 0.00 | 69 | 1010.6 |
| 20260505125035 | 58 | 348 | 7.0 | 16.5 | 0.00 | 0.00 | 0.00 | 69 | 1010.9 |
| 20260505124524 | 58 | 325 | 7.0 | 16.5 | 0.00 | 0.00 | 0.00 | 69 | 1010.9 |
| 20260505124029 | 58 | 333 | 9.6 | 16.5 | 0.00 | 0.00 | 0.00 | 67 | 1010.9 |
| 20260505123537 | 59 | 340 | 9.6 | 15.6 | 0.00 | 0.00 | 0.00 | 67 | 1011.0 |
| 20260505123042 | 59 | 355 | 7.8 | 15.6 | 0.00 | 0.00 | 0.00 | 68 | 1011.0 |
| 20260505122529 | 59 | 320 | 5.2 | 15.6 | 0.00 | 0.00 | 0.00 | 68 | 1010.9 |
| 20260505122057 | 58 | 34 | 10.4 | 15.6 | 0.00 | 0.00 | 0.00 | 67 | 1011.0 |
| 20260505121525 | 59 | 5 | 7.0 | 13.0 | 0.00 | 0.00 | 0.00 | 67 | 1011.0 |
| 20260505121033 | 59 | 325 | 6.1 | 15.6 | 0.00 | 0.00 | 0.00 | 68 | 1010.9 |
| 20260505120522 | 58 | 40 | 8.7 | 15.6 | 0.00 | 0.00 | 0.00 | 68 | 1010.9 |
| 20260505120041 | 58 | 34 | 7.0 | 16.5 | 0.00 | 0.00 | 0.00 | 69 | 1011.0 |
| 20260505115545 | 58 | 5 | 7.8 | 16.5 | 0.00 | 0.00 | 0.00 | 70 | 1011.1 |
| 20260505115033 | 58 | 5 | 8.7 | 13.9 | 0.00 | 0.00 | 0.00 | 70 | 1011.0 |
| 20260505114543 | 58 | 11 | 7.0 | 14.8 | 0.00 | 0.00 | 0.00 | 70 | 1011.0 |
| 20260505114029 | 58 | 349 | 7.8 | 16.5 | 0.00 | 0.00 | 0.00 | 70 | 1011.0 |
| 20260505113554 | 58 | 32 | 7.0 | 13.9 | 0.00 | 0.00 | 0.00 | 70 | 1011.2 |
| 20260505113021 | 58 | 297 | 8.7 | 13.9 | 0.00 | 0.00 | 0.00 | 69 | 1011.1 |
| 20260505112532 | 59 | 311 | 7.8 | 13.9 | 0.00 | 0.00 | 0.00 | 69 | 1011.2 |
| 20260505112039 | 58 | 36 | 7.8 | 14.8 | 0.00 | 0.00 | 0.00 | 69 | 1011.3 |
| 20260505111524 | 58 | 29 | 8.7 | 17.4 | 0.00 | 0.00 | 0.00 | 69 | 1011.2 |
| 20260505111030 | 59 | 16 | 11.3 | 17.4 | 0.00 | 0.00 | 0.00 | 66 | 1011.3 |
| 20260505110519 | 58 | 321 | 7.0 | 14.8 | 0.00 | 0.00 | 0.00 | 70 | 1011.4 |
| 20260505102024 | 58 | 17 | 7.8 | 15.6 | 0.00 | 0.00 | 0.00 | 67 | 1011.7 |
| 20260505101533 | 58 | 5 | 6.1 | 13.9 | 0.00 | 0.00 | 0.00 | 69 | 1011.7 |
| 20260505101052 | 58 | 26 | 7.8 | 13.9 | 0.00 | 0.00 | 0.00 | 68 | 1011.8 |
| 20260505100520 | 58 | 5 | 6.1 | 14.8 | 0.00 | 0.00 | 0.00 | 69 | 1011.7 |
| 20260505100042 | 58 | 26 | 7.0 | 13.0 | 0.00 | 0.00 | 0.00 | 70 | 1011.7 |
| 20260505095530 | 57 | 305 | 5.2 | 13.0 | 0.00 | 0.00 | 0.00 | 69 | 1011.8 |
| 20260505095019 | 58 | 17 | 5.2 | 13.0 | 0.00 | 0.00 | 0.00 | 70 | 1011.8 |
| 20260505094523 | 57 | 17 | 6.1 | 13.0 | 0.00 | 0.00 | 0.00 | 70 | 1011.8 |
| 20260505094052 | 58 | 21 | 6.1 | 13.0 | 0.00 | 0.00 | 0.00 | 67 | 1011.8 |
| 20260505093520 | 58 | 349 | 6.1 | 11.3 | 0.00 | 0.00 | 0.00 | 67 | 1011.7 |
| 20260505093028 | 58 | 360 | 5.2 | 9.6 | 0.00 | 0.00 | 0.00 | 67 | 1011.8 |
| 20260505092533 | 59 | 346 | 4.3 | 10.4 | 0.00 | 0.00 | 0.00 | 66 | 1011.8 |
| 20260505092021 | 59 | 17 | 4.3 | 11.3 | 0.00 | 0.00 | 0.00 | 65 | 1011.8 |
| 20260505091555 | 59 | 332 | 7.0 | 11.3 | 0.00 | 0.00 | 0.00 | 65 | 1011.9 |
| 20260505091023 | 58 | 25 | 4.3 | 12.2 | 0.00 | 0.00 | 0.00 | 66 | 1011.8 |
| 20260505090532 | 58 | 5 | 5.2 | 10.4 | 0.00 | 0.00 | 0.00 | 67 | 1011.9 |
| 20260505090051 | 58 | 31 | 4.3 | 12.2 | 0.00 | 0.00 | 0.00 | 68 | 1011.8 |
| 20260505085519 | 57 | 39 | 7.0 | 12.2 | 0.00 | 0.00 | 0.00 | 68 | 1011.8 |
| 20260505085029 | 57 | 25 | 5.2 | 11.3 | 0.00 | 0.00 | 0.00 | 69 | 1011.8 |
| 20260505084519 | 57 | 19 | 7.0 | 11.3 | 0.00 | 0.00 | 0.00 | 68 | 1011.8 |
| 20260505084024 | 58 | 347 | 4.3 | 8.7 | 0.00 | 0.00 | 0.00 | 68 | 1011.9 |
| 20260505083532 | 57 | 330 | 3.5 | 11.3 | 0.00 | 0.00 | 0.00 | 70 | 1011.9 |
| 20260505083022 | 55 | 9 | 5.2 | 12.2 | 0.00 | 0.00 | 0.00 | 71 | 1011.8 |
| 20260505082530 | 56 | 343 | 7.0 | 12.2 | 0.00 | 0.00 | 0.00 | 71 | 1011.9 |
| 20260505082019 | 56 | 5 | 4.3 | 9.6 | 0.00 | 0.00 | 0.00 | 71 | 1011.9 |
| 20260505081523 | 55 | 25 | 4.3 | 12.2 | 0.00 | 0.00 | 0.00 | 72 | 1011.9 |
| 20260505081051 | 55 | 37 | 7.8 | 13.0 | 0.00 | 0.00 | 0.00 | 71 | 1011.8 |
| 20260505080520 | 55 | 31 | 5.2 | 14.8 | 0.00 | 0.00 | 0.00 | 73 | 1011.8 |
| 20260505080041 | 55 | 12 | 6.1 | 14.8 | 0.00 | 0.00 | 0.00 | 73 | 1011.6 |
| 20260505075525 | 55 | 5 | 7.0 | 14.8 | 0.00 | 0.00 | 0.00 | 74 | 1011.8 |
| 20260505075032 | 55 | 355 | 5.2 | 14.8 | 0.00 | 0.00 | 0.00 | 74 | 1011.8 |
| 20260505074521 | 55 | 355 | 7.8 | 13.9 | 0.00 | 0.00 | 0.00 | 73 | 1011.8 |
| 20260505074054 | 55 | 28 | 6.1 | 11.3 | 0.00 | 0.00 | 0.00 | 73 | 1011.8 |
| 20260505073521 | 55 | 342 | 3.5 | 11.3 | 0.00 | 0.00 | 0.00 | 73 | 1011.8 |
| 20260505073025 | 55 | 57 | 6.1 | 10.4 | 0.00 | 0.00 | 0.00 | 73 | 1012.0 |
| 20260505072534 | 55 | 29 | 4.3 | 7.8 | 0.00 | 0.00 | 0.00 | 76 | 1012.0 |
| 20260505072023 | 54 | 24 | 3.5 | 7.8 | 0.00 | 0.00 | 0.00 | 76 | 1012.0 |
| 20260505071532 | 54 | 40 | 3.5 | 7.8 | 0.00 | 0.00 | 0.00 | 77 | 1012.1 |
| 20260505071021 | 54 | 21 | 3.5 | 7.8 | 0.00 | 0.00 | 0.00 | 77 | 1012.1 |
| 20260505070545 | 54 | 355 | 2.6 | 8.7 | 0.00 | 0.00 | 0.00 | 79 | 1012.2 |
| 20260505070026 | 53 | 18 | 3.5 | 8.7 | 0.00 | 0.00 | 0.00 | 80 | 1012.2 |
| 20260505065535 | 53 | 360 | 3.5 | 8.7 | 0.00 | 0.00 | 0.00 | 81 | 1012.3 |
| 20260505065023 | 52 | 23 | 2.6 | 8.7 | 0.00 | 0.00 | 0.00 | 81 | 1012.3 |
| 20260505064528 | 52 | 15 | 4.3 | 7.8 | 0.00 | 0.00 | 0.00 | 82 | 1012.2 |
| 20260505064017 | 51 | 42 | 2.6 | 8.7 | 0.00 | 0.00 | 0.00 | 83 | 1012.3 |
| 20260505063526 | 51 | 46 | 4.3 | 9.6 | 0.00 | 0.00 | 0.00 | 83 | 1012.4 |
| 20260505063034 | 51 | 15 | 2.6 | 9.6 | 0.00 | 0.00 | 0.00 | 83 | 1012.5 |
| 20260505062523 | 52 | 15 | 3.5 | 8.7 | 0.00 | 0.00 | 0.00 | 84 | 1012.5 |
| 20260505062026 | 52 | 23 | 3.5 | 8.7 | 0.00 | 0.00 | 0.00 | 85 | 1012.5 |
| 20260505061535 | 51 | 38 | 2.6 | 12.2 | 0.00 | 0.00 | 0.00 | 85 | 1012.5 |
| 20260505061024 | 51 | 37 | 3.5 | 12.2 | 0.00 | 0.00 | 0.00 | 86 | 1012.4 |
| 20260505060533 | 51 | 332 | 3.5 | 8.7 | 0.00 | 0.00 | 0.00 | 86 | 1012.5 |
| 20260505060036 | 51 | 5 | 2.6 | 8.7 | 0.00 | 0.00 | 0.00 | 86 | 1012.6 |
| 20260505055522 | 51 | 42 | 2.6 | 5.2 | 0.00 | 0.04 | 0.00 | 86 | 1012.5 |
| 20260505055032 | 51 | 38 | 1.7 | 5.2 | 0.00 | 0.04 | 0.00 | 86 | 1012.5 |
| 20260505054521 | 51 | 26 | 2.6 | 7.8 | 0.00 | 0.04 | 0.00 | 87 | 1012.5 |
| 20260505054030 | 51 | 33 | 1.7 | 7.8 | 0.00 | 0.04 | 0.00 | 87 | 1012.5 |
| 20260505053539 | 51 | 346 | 3.5 | 7.8 | 0.00 | 0.04 | 0.00 | 87 | 1012.5 |
| 20260505053022 | 51 | 73 | 1.7 | 7.8 | 0.00 | 0.04 | 0.00 | 87 | 1012.5 |
| 20260505052531 | 51 | 36 | 2.6 | 7.8 | 0.00 | 0.04 | 0.00 | 87 | 1012.5 |
| 20260505052039 | 51 | 16 | 2.6 | 7.8 | 0.00 | 0.04 | 0.00 | 87 | 1012.4 |
| 20260505051528 | 51 | 9 | 2.6 | 5.2 | 0.00 | 0.04 | 0.00 | 87 | 1012.4 |
| 20260505051055 | 51 | 24 | 2.6 | 7.0 | 0.00 | 0.04 | 0.00 | 87 | 1012.3 |
| 20260505050523 | 51 | 61 | 1.7 | 7.8 | 0.00 | 0.04 | 0.00 | 87 | 1012.3 |
| 20260505041532 | 51 | 10 | 2.6 | 7.8 | 0.00 | 0.04 | 0.00 | 88 | 1012.2 |
| 20260505041022 | 51 | 21 | 1.7 | 7.8 | 0.00 | 0.04 | 0.00 | 87 | 1012.1 |
| 20260505040531 | 51 | 350 | 2.6 | 7.0 | 0.00 | 0.04 | 0.00 | 87 | 1012.2 |
| 20260505040053 | 51 | 5 | 2.6 | 7.8 | 0.00 | 0.04 | 0.00 | 87 | 1012.2 |
| 20260505035540 | 51 | 5 | 3.5 | 7.8 | 0.00 | 0.04 | 0.00 | 87 | 1012.2 |
| 20260505035029 | 51 | 321 | 3.5 | 7.8 | 0.00 | 0.04 | 0.00 | 87 | 1012.1 |
| 20260505034518 | 51 | 9 | 3.5 | 7.0 | 0.00 | 0.04 | 0.00 | 87 | 1012.2 |
| 20260505034027 | 51 | 57 | 2.6 | 5.2 | 0.00 | 0.04 | 0.00 | 87 | 1012.2 |